Jamestown, ND

2:00 PM CST on February 21, 2017 (GMT -0600)
Jamestown Municipal

Weather History for KJMS - December, 2013

Change the Weather History Date:

Saturday, December 7, 2013

  Actual Average Record
Temperature  
Mean Temperature -16 °F 17 °F  
Max Temperature -9 °F 25 °F 61 °F (1939)
Min Temperature -23 °F 8 °F -24 °F (1906)
Degree Days  
Heating Degree Days 81 48  
Month to date heating degree days 408 330  
Since 1 July heating degree days 2418 2414  
Cooling Degree Days 0 0  
Month to date cooling degree days 0 0  
Year to date cooling degree days 521 446  
Moisture  
Dew Point -21 °F    
Average Humidity 72    
Maximum Humidity 81    
Minimum Humidity 63    
Precipitation  
Precipitation T in 0.01 in 0.31 in (1963)
Month to date precipitation 0.16 0.10  
Year to date precipitation 16.03 18.47  
Sea Level Pressure  
Sea Level Pressure 30.65 in    
Wind  
Wind Speed 9 mph (WSW)    
Max Wind Speed 16 mph    
Max Gust Speed 19 mph    
Visibility 10 miles    
Events      
T = Trace of Precipitation, MM = Missing Value Source: NWS Daily Summary

Daily Weather History Graph

Daily Weather History Graph

Search for Another Location

Airport or City:

Trip Planner

Search our weather history database for the weather conditions in past years. The results will help you decide how hot, cold, wet, or windy it might be!

Date:

Astronomy

Dec. 07, 2013 Rise Set
Actual Time 8:06 AM CST 4:46 PM CST
Civil Twilight 7:31 AM CST 5:21 PM CST
Nautical Twilight 6:53 AM CST 5:59 PM CST
Astronomical Twilight 6:16 AM CST 6:36 PM CST
Moon 11:38 AM CST (12/7) 10:44 PM CST (12/7)
Length of Visible Light 9h 49m
Length of Day
8h 39m
Waxing Crescent, 29% of the Moon is Illuminated
Dec 7
Waxing Crescent
Dec 9
First Quarter
Dec 17
Full
Dec 25
Last Quarter
Jan 1
New

Hourly Weather History & Observations

Time (CST) Temp. Windchill Dew Point Humidity Pressure Visibility Wind Dir Wind Speed Gust Speed Precip Events Conditions
12:56 AM -13.0 °F -34.3 °F -20.0 °F 71% 30.70 in 10.0 mi West 12.7 mph - N/A   Clear
1:56 AM -14.1 °F -35.7 °F -20.9 °F 71% 30.69 in 10.0 mi West 12.7 mph - N/A   Clear
2:56 AM -14.1 °F -34.7 °F -20.9 °F 71% 30.69 in 10.0 mi West 11.5 mph - N/A   Clear
3:56 AM -15.0 °F -36.8 °F -20.9 °F 75% 30.69 in 10.0 mi West 12.7 mph - N/A   Clear
4:56 AM -15.0 °F -33.7 °F -22.0 °F 71% 30.68 in 10.0 mi WNW 9.2 mph - N/A   Clear
5:56 AM -16.1 °F -38.2 °F -23.1 °F 71% 30.68 in 10.0 mi WNW 12.7 mph - N/A   Clear
6:56 AM -16.1 °F -36.2 °F -23.1 °F 71% 30.69 in 10.0 mi West 10.4 mph - N/A   Clear
7:56 AM -17.0 °F -34.8 °F -24.0 °F 70% 30.70 in 10.0 mi West 8.1 mph - N/A   Clear
8:56 AM -17.0 °F -36.1 °F -24.0 °F 70% 30.71 in 10.0 mi West 9.2 mph - N/A   Clear
9:56 AM -15.0 °F -33.7 °F -22.0 °F 71% 30.71 in 10.0 mi West 9.2 mph - N/A   Clear
10:56 AM -14.1 °F -35.7 °F -20.9 °F 71% 30.71 in 10.0 mi West 12.7 mph - N/A   Clear
11:56 AM -11.9 °F -29.9 °F -20.0 °F 67% 30.69 in 10.0 mi WNW 9.2 mph - N/A   Clear
12:56 PM -11.0 °F -31.8 °F -18.0 °F 71% 30.66 in 10.0 mi WNW 12.7 mph - N/A   Clear
1:56 PM -9.0 °F -27.4 °F -17.0 °F 68% 30.65 in 10.0 mi West 10.4 mph - 0.00 in   Clear
2:56 PM -9.0 °F -26.4 °F -17.0 °F 68% 30.63 in 10.0 mi West 9.2 mph - N/A   Clear
3:56 PM -9.9 °F -24.9 °F -16.1 °F 74% 30.63 in 10.0 mi WSW 6.9 mph - N/A   Clear
4:56 PM -11.0 °F -22.8 °F -17.0 °F 75% 30.61 in 10.0 mi West 4.6 mph - N/A   Clear
5:56 PM -11.9 °F -21.5 °F -18.0 °F 74% 30.61 in 10.0 mi WSW 3.5 mph - N/A   Clear
6:56 PM -16.1 °F -30.6 °F -20.9 °F 79% 30.61 in 10.0 mi SSW 5.8 mph - N/A   Clear
7:56 PM -18.9 °F -29.5 °F -24.0 °F 78% 30.59 in 10.0 mi South 3.5 mph - N/A   Clear
8:56 PM -22.0 °F -39.4 °F -27.0 °F 77% 30.58 in 10.0 mi SSW 6.9 mph - N/A   Clear
9:56 PM -18.9 °F -34.0 °F -24.0 °F 78% 30.57 in 10.0 mi South 5.8 mph - N/A   Clear
10:56 PM -18.9 °F -35.8 °F -25.1 °F 74% 30.55 in 10.0 mi South 6.9 mph - N/A   Clear
11:56 PM -17.0 °F -33.4 °F -23.1 °F 74% 30.52 in 10.0 mi SSW 6.9 mph - N/A   Mostly Cloudy